Location: Munkebjergskolens Observatorium
(55.3864°N, 10.3987°E)
Time: 04:54:15
(UTC+02:00)

KKS-1 - Pass Details

Date: 04 April 2023
Orbit: 633 x 644 km, 98.2° (Epoch: 31 May)

Event Time Altitude Azimuth Distance (km) Brightness Sun altitude
Rises 23:50:02 0° 17° (NNE) 2,946 ? -25.9°
Reaches altitude 10° 23:52:17 10° 22° (NNE) 2,033 ? -26.0°
Enters shadow 23:55:26 42° 47° (NE) 910 ? -26.2°
